FENGYUN 1C DEB

Satellite information

Favourite Embed

Satellite Type and Status

DEBRISIN ORBIT

Key statistics

Satellite FENGYUN 1C DEB at a glance.

Uptime

9659

Days in orbit

Revolutions

≈ 14.3

Per day

Orbit

SSO

Sun Synchronous Orbit

Inclination

99.1

Latest

Satellite identification and parameters

Extended collection of information and parameters for FENGYUN 1C DEB.

Object identification

Identified? True

Debris? True

Object name: FENGYUN 1C DEB

International designator: 1999-025BXA

Object number (NORAD): 31511

Object ID (CCSDS): 31511

Country: PEOPLES REPUBLIC OF CHINA (PRC)

Current information (Y/N): Y

RCS size: SMALL

Orbital parameters

Period: 100.864 minutes

Inclination: 99.0698 deg

SMA: 7177.696 km

Apoapsis: 877.26 km

Periapsis: 721.861 km

RAAN: 97.1599 deg

Eccentricy: 0.01082512

Argument of periapsis: 28.4488 deg

Mean anomaly: 332.2544 deg

Mean motion: 14.27661283 rev/day

Mean motion (dot): 0.00002603 rev/day2

B* drag term: 0.001009949 1/REarth

Two-line elements (TLE)

Creation date: Oct. 18, 2025, 2:17 a.m.

Reference frame: TEME

Reference center: EARTH

Epoch: Oct. 17, 2025, 3:40 p.m. UTC

TLE line 0: 0 FENGYUN 1C DEB

TLE line 1: 1 31511U 99025BXA 25290.65323389 .00002603 00000-0 10099-2 0 9995

TLE line 2: 2 31511 99.0698 97.1599 0108251 28.4488 332.2544 14.27661283950002

Live tracking on map

Real-time ground track for satellite FENGYUN 1C DEB.

In-orbit conjunctions

A list of the most updated potential collisions computed for object FENGYUN 1C DEB.

Target Orbit TCA Probability of collision Miss distance Type
CZ-6A DEB LEO 2025-02-17 09:07:45 0.0002657542 285.0 (m) DEBRIS
CZ-6A DEB LEO 2025-01-11 18:40:42 0.0001599152 677.0 (m) DEBRIS
CZ-4 DEB SSO 2024-09-26 08:35:35 0.0001092049 455.0 (m) DEBRIS
SL-16 DEB LEO 2024-07-11 20:13:01 0.0001062158 113.0 (m) DEBRIS
FENGYUN 1C DEB SSO 2024-06-30 10:56:03 0.0001295809 244.0 (m) DEBRIS

Associated space launch

Chinese polar orbiting meteorological satellite

FENGYUN 1C DEB was lifted into orbit during the mission ‘Long March 4B | Feng Yun 1C’, on board a Long March 4B space rocket.

The launch took place on May 10, 1999, 1:33 a.m. from Launch Complex 7.

For more information about the launch, click the button.

Launch to space Long March 4B | Feng Yun 1C
Long March 4B | Feng Yun 1C

Agency: N/A

Status: Launch Successful

Launch date: May 10, 1999, 1:33 a.m. UTC

Rocket: Long March 4B

Launch pad: Launch Complex 7

Location: Taiyuan Satellite Launch Center, People's Republic of China

...

Latest news about this satellite

There are no fresh news available about this satellite. Check back as we update our databases every day.


Newsletter sign-up

Weekly statistics, charts and insights to help you stay on top of the space industry.